EW9733 Weather Reports


Display with metric or nautical units.
time (UTC)temp
F
wind
direction
speed
MPH
gust
MPH
rain 1hr
in
rain 24hr
in
rain mn
in
humidity
%
barometer
mb
20260831073011 64 193 0.0 1.0 0.00 0.08 0.00 90 1016.3
20260831071510 65 194 0.0 0.0 0.00 0.08 0.00 90 1016.3
20260831070012 65 194 0.0 0.0 0.00 0.08 0.00 90 1016.2
20260831064505 66 194 0.0 0.0 0.00 0.08 0.00 90 1016.2
20260831063004 66 194 0.0 0.0 0.00 0.08 0.00 90 1016.2
20260831061502 67 194 0.0 0.0 0.00 0.08 0.00 90 1016.2
20260831060109 67 194 0.0 0.0 0.00 0.08 0.00 90 1016.1
20260831054559 67 194 0.0 0.0 0.00 0.08 0.00 89 1016.0
20260831053054 68 194 0.0 0.0 0.00 0.08 0.00 89 1015.7
20260831051616 68 194 0.0 0.0 0.00 0.08 0.00 89 1015.6
20260831050051 69 194 0.0 0.0 0.00 0.08 0.00 89 1015.5
20260831044549 69 194 0.0 0.0 0.00 0.08 0.00 89 1015.5
20260831043048 70 194 0.0 0.0 0.02 0.08 0.00 88 1015.6
20260831041549 70 194 0.0 0.0 0.04 0.08 0.00 88 1015.6
20260831040049 70 194 0.0 0.0 0.08 0.08 0.00 87 1015.5
20260831034542 71 194 0.0 1.0 0.08 0.08 0.08 87 1015.6
20260831033042 71 192 0.0 1.0 0.06 0.06 0.06 85 1015.8
20260831031546 72 190 0.0 1.0 0.04 0.04 0.04 83 1015.7
20260831030041 72 193 0.0 2.0 0.00 0.00 0.00 80 1015.8
20260831024540 72 279 0.0 1.0 0.00 0.00 0.00 78 1015.6
20260831023042 73 280 0.0 1.0 0.00 0.00 0.00 76 1015.6
20260831021552 73 280 0.0 1.0 0.00 0.00 0.00 75 1015.5
20260831020038 73 156 0.0 2.0 0.00 0.00 0.00 74 1015.5
20260831014538 73 184 0.0 2.0 0.00 0.00 0.00 72 1015.4
20260831013039 73 184 0.0 2.0 0.00 0.00 0.00 71 1015.3
20260831011540 73 53 0.0 2.0 0.00 0.00 0.00 69 1015.3
20260831010104 74 259 0.0 3.0 0.00 0.00 0.00 68 1015.3
20260831004547 74 236 0.0 3.0 0.00 0.00 0.00 67 1015.1
20260831003036 74 244 0.0 3.0 0.00 0.00 0.00 66 1015.1
20260831001551 74 155 0.0 2.0 0.00 0.00 0.00 64 1014.9
20260831000035 74 176 0.0 2.0 0.00 0.00 0.00 63 1014.7
20260830234534 75 215 0.0 3.0 0.00 0.00 0.00 63 1014.7
20260830233033 75 141 0.0 3.0 0.00 0.00 0.00 61 1014.7
20260830231535 76 178 0.0 6.0 0.00 0.00 0.00 60 1014.8
20260830230036 76 155 0.0 3.0 0.00 0.00 0.00 59 1014.7
20260830224539 77 128 0.0 3.0 0.00 0.00 0.00 59 1015.0
20260830223029 77 152 0.0 3.0 0.00 0.00 0.00 58 1015.0
20260830221529 78 258 0.0 5.0 0.00 0.00 0.00 56 1015.0
20260830220028 78 142 0.0 3.0 0.00 0.00 0.00 53 1015.1
20260830214528 78 225 0.0 3.0 0.00 0.00 0.00 51 1015.1
20260830213027 79 148 0.0 6.0 0.00 0.00 0.00 51 1015.2
20260830211527 79 313 1.0 9.0 0.00 0.00 0.00 48 1015.1
20260830210025 80 91 0.0 7.0 0.00 0.00 0.00 50 1015.1
20260830204523 80 320 1.0 4.0 0.00 0.00 0.00 48 1015.2
20260830203022 81 241 0.0 4.0 0.00 0.00 0.00 47 1015.4
20260830201521 81 241 0.0 4.0 0.00 0.00 0.00 47 1015.5
20260830200020 82 335 0.0 7.0 0.00 0.00 0.00 45 1015.5
20260830194519 83 333 0.0 3.0 0.00 0.00 0.00 45 1015.7
20260830193018 83 107 0.0 7.0 0.00 0.00 0.00 41 1015.8
20260830191515 84 355 0.0 5.0 0.00 0.00 0.00 41 1015.8
20260830190019 83 306 1.0 8.0 0.00 0.00 0.00 45 1016.0
20260830184514 83 93 0.0 3.0 0.00 0.00 0.00 45 1016.1
20260830183013 83 304 1.0 5.0 0.00 0.00 0.00 45 1016.3
20260830181509 84 272 1.0 5.0 0.00 0.00 0.00 43 1016.5
20260830180009 84 355 1.0 8.0 0.00 0.00 0.00 43 1016.7
20260830174517 84 198 0.0 6.0 0.00 0.00 0.00 43 1016.5
20260830173007 84 168 0.0 7.0 0.00 0.00 0.00 47 1016.7
20260830171506 85 5 2.0 7.0 0.00 0.00 0.00 44 1016.7
20260830170004 83 14 2.0 8.0 0.00 0.00 0.00 46 1017.0
20260830164502 84 274 2.0 8.0 0.00 0.00 0.00 43 1016.9
20260830163001 83 239 2.0 8.0 0.00 0.00 0.00 48 1017.2
20260830161632 84 355 2.0 7.0 0.00 0.00 0.00 45 1017.1
20260830154556 84 333 1.0 8.0 0.00 0.00 0.00 46 1017.4
20260830153052 83 334 1.0 11.0 0.00 0.00 0.00 49 1017.6
20260830151551 82 339 1.0 4.0 0.00 0.00 0.00 48 1017.6
20260830150049 82 344 1.0 5.0 0.00 0.00 0.00 48 1017.9
20260830144544 81 262 0.0 4.0 0.00 0.00 0.00 51 1018.2
20260830143039 80 21 0.0 4.0 0.00 0.00 0.00 51 1018.2
20260830141534 79 275 0.0 3.0 0.00 0.00 0.00 54 1018.4
20260830140029 78 223 0.0 3.0 0.00 0.00 0.00 60 1018.6
20260830134538 77 330 0.0 3.0 0.00 0.00 0.00 61 1018.8
20260830133026 73 325 0.0 4.0 0.00 0.00 0.00 68 1019.0
20260830131518 71 44 0.0 2.0 0.00 0.00 0.00 71 1019.1
20260830130011 69 248 0.0 3.0 0.00 0.00 0.00 72 1019.1
20260830124507 67 52 0.0 3.0 0.00 0.00 0.00 77 1019.3
20260830123002 65 144 0.0 1.0 0.00 0.00 0.00 79 1019.5
20260830121600 65 144 0.0 3.0 0.00 0.00 0.00 81 1019.7
20260830120100 63 189 0.0 2.0 0.00 0.00 0.00 85 1019.5
20260830114551 62 244 0.0 0.0 0.00 0.00 0.00 85 1019.6
20260830113047 61 244 0.0 2.0 0.00 0.00 0.00 86 1019.6
20260830111543 60 133 0.0 1.0 0.00 0.00 0.00 87 1019.7
20260830110103 59 180 0.0 0.0 0.00 0.00 0.00 87 1019.7
20260830104538 59 180 0.0 3.0 0.00 0.00 0.00 87 1019.7
20260830103034 59 122 0.0 1.0 0.00 0.00 0.00 87 1019.8
20260830101533 59 122 0.0 1.0 0.00 0.00 0.00 87 1019.7
20260830100032 59 122 0.0 2.0 0.00 0.00 0.00 87 1019.6
20260830094532 59 113 0.0 1.0 0.00 0.00 0.00 88 1019.5
20260830093032 59 113 0.0 4.0 0.00 0.00 0.00 89 1019.5
20260830091529 58 140 0.0 1.0 0.00 0.00 0.00 89 1019.7
20260830090029 58 140 0.0 1.0 0.00 0.00 0.00 89 1019.9
20260830084527 58 142 0.0 1.0 0.00 0.00 0.00 89 1020.2
20260830083028 58 142 0.0 0.0 0.00 0.00 0.00 90 1020.4
20260830081529 57 142 0.0 1.0 0.00 0.00 0.00 90 1020.3
20260830080024 57 140 0.0 0.0 0.00 0.00 0.00 90 1020.1
20260830074704 57 142 0.0 0.0 0.00 0.00 0.00 91 1020.1